Time,TemperatureF,DewpointF,PressureIn,WindDirection,WindDirectionDegrees,WindSpeedMPH,WindSpeedGustMPH,Humidity,HourlyPrecipIn,Conditions,Clouds,dailyrainin,SoftwareType,DateUTC
2013-02-25 00:27:00,31.8,22.1,26.68,WSW,258,0.0,0.0,67,0.00,,,-99.99,VWS V12.07,2013-02-25 05:27:00,
2013-02-25 00:57:00,31.4,22.4,26.68,WSW,255,0.0,0.0,69,0.00,,,-99.99,VWS V12.07,2013-02-25 05:57:00,
2013-02-25 01:27:00,30.7,22.1,26.69,SW,224,0.0,0.0,70,0.00,,,-99.99,VWS V12.07,2013-02-25 06:27:00,
2013-02-25 01:57:00,29.9,22.0,26.69,SW,230,0.0,0.0,72,0.00,,,-99.99,VWS V12.07,2013-02-25 06:57:00,
2013-02-25 02:27:00,30.2,21.9,26.67,SW,226,0.0,0.0,71,0.00,,,-99.99,VWS V12.07,2013-02-25 07:27:00,
2013-02-25 02:57:00,30.2,21.9,26.68,WSW,254,0.0,0.0,71,0.00,,,-99.99,VWS V12.07,2013-02-25 07:57:00,
2013-02-25 03:27:00,29.6,21.7,26.67,WSW,252,0.0,0.0,72,0.00,,,-99.99,VWS V12.07,2013-02-25 08:27:00,
2013-02-25 03:57:00,28.1,21.8,26.68,WSW,252,0.0,0.0,77,0.00,,,-99.99,VWS V12.07,2013-02-25 08:57:00,
2013-02-25 04:27:00,28.4,21.5,26.67,WSW,252,0.0,0.0,75,0.00,,,-99.99,VWS V12.07,2013-02-25 09:27:00,
2013-02-25 04:57:00,27.9,21.9,26.69,WSW,252,0.0,0.0,78,0.00,,,-99.99,VWS V12.07,2013-02-25 09:57:00,
2013-02-25 05:27:00,27.1,21.8,26.69,WSW,252,0.0,0.0,80,0.00,,,-99.99,VWS V12.07,2013-02-25 10:27:00,
2013-02-25 05:57:00,28.0,21.7,26.70,WSW,252,0.0,0.0,77,0.00,,,-99.99,VWS V12.07,2013-02-25 10:57:00,
2013-02-25 06:27:00,28.1,21.2,26.70,WSW,252,0.0,0.0,75,0.00,,,-99.99,VWS V12.07,2013-02-25 11:27:00,
2013-02-25 06:57:00,27.2,21.9,26.71,WSW,252,0.0,0.0,80,0.00,,,-99.99,VWS V12.07,2013-02-25 11:57:00,
2013-02-25 07:27:00,27.4,21.8,26.72,WSW,252,0.0,0.0,79,0.00,,,-99.99,VWS V12.07,2013-02-25 12:27:00,
2013-02-25 07:57:00,28.1,21.8,26.73,ENE,62,0.0,0.0,77,0.00,,,-99.99,VWS V12.07,2013-02-25 12:57:00,
2013-02-25 08:27:00,28.0,21.7,26.75,ENE,70,0.0,0.0,77,0.00,,,-99.99,VWS V12.07,2013-02-25 13:27:00,
2013-02-25 08:57:00,27.7,22.4,26.76,ENE,69,0.0,0.0,80,0.00,,,-99.99,VWS V12.07,2013-02-25 13:57:00,
2013-02-25 09:27:00,27.1,22.1,26.75,East,93,0.0,0.0,81,0.00,,,-99.99,VWS V12.07,2013-02-25 14:27:00,
2013-02-25 09:57:00,27.1,22.4,26.77,East,83,0.0,0.0,82,0.00,,,-99.99,VWS V12.07,2013-02-25 14:57:00,
2013-02-25 10:27:00,27.4,22.6,26.76,East,94,0.0,0.0,82,0.00,,,-99.99,VWS V12.07,2013-02-25 15:27:00,
2013-02-25 10:57:00,27.5,23.0,26.76,East,92,0.0,0.0,83,0.00,,,-99.99,VWS V12.07,2013-02-25 15:57:00,
2013-02-25 11:27:00,28.7,23.6,26.77,East,95,0.0,0.0,81,0.00,,,-99.99,VWS V12.07,2013-02-25 16:27:00,
2013-02-25 11:57:00,29.3,23.9,26.75,South,188,0.0,0.0,80,0.00,,,-99.99,VWS V12.07,2013-02-25 16:57:00,
2013-02-25 12:27:00,30.5,24.8,26.74,NE,54,0.0,0.0,79,0.00,,,-99.99,VWS V12.07,2013-02-25 17:27:00,
2013-02-25 12:57:00,31.2,24.5,26.73,East,89,0.0,0.0,76,0.00,,,-99.99,VWS V12.07,2013-02-25 17:57:00,
2013-02-25 13:27:00,31.5,24.8,26.72,ESE,106,0.0,0.0,76,0.00,,,-99.99,VWS V12.07,2013-02-25 18:27:00,
2013-02-25 13:57:00,31.9,25.2,26.72,SE,137,0.0,0.0,76,0.00,,,-99.99,VWS V12.07,2013-02-25 18:57:00,
2013-02-25 14:27:00,32.4,25.7,26.71,East,101,0.0,0.0,76,0.00,,,-99.99,VWS V12.07,2013-02-25 19:27:00,
2013-02-25 14:57:00,33.5,27.1,26.71,East,81,0.0,0.0,77,0.00,,,-99.99,VWS V12.07,2013-02-25 19:57:00,
2013-02-25 15:27:00,33.9,26.8,26.71,ENE,67,0.0,0.0,75,0.00,,,-99.99,VWS V12.07,2013-02-25 20:27:00,
2013-02-25 15:57:00,34.6,26.9,26.69,SE,145,0.0,0.0,73,0.00,,,-99.99,VWS V12.07,2013-02-25 20:57:00,
2013-02-25 16:27:00,35.6,27.5,26.69,East,80,0.0,0.0,72,0.00,,,-99.99,VWS V12.07,2013-02-25 21:27:00,
2013-02-25 16:57:00,35.6,27.5,26.69,East,79,0.0,0.0,72,0.00,,,-99.99,VWS V12.07,2013-02-25 21:57:00,
2013-02-25 17:27:00,34.9,26.8,26.70,East,80,0.0,0.0,72,0.00,,,-99.99,VWS V12.07,2013-02-25 22:27:00,
2013-02-25 17:57:00,33.5,26.4,26.70,ESE,108,0.0,0.0,75,0.00,,,-99.99,VWS V12.07,2013-02-25 22:57:00,
2013-02-25 18:27:00,32.1,25.4,26.70,South,185,0.0,0.0,76,0.00,,,-99.99,VWS V12.07,2013-02-25 23:27:00,
2013-02-25 18:57:00,30.9,25.2,26.71,NW,322,0.0,0.0,79,0.00,,,-99.99,VWS V12.07,2013-02-25 23:57:00,
2013-02-25 19:27:00,30.1,25.0,26.70,SSW,201,0.0,0.0,81,0.00,,,-99.99,VWS V12.07,2013-02-26 00:27:00,
2013-02-25 19:57:00,29.4,24.9,26.71,ESE,114,0.0,0.0,83,0.00,,,-99.99,VWS V12.07,2013-02-26 00:57:00,
2013-02-25 20:27:00,28.7,24.8,26.71,SE,137,0.0,0.0,85,0.00,,,-99.99,VWS V12.07,2013-02-26 01:27:00,
2013-02-25 20:57:00,28.6,24.7,26.71,ENE,68,0.0,0.0,85,0.00,,,-99.99,VWS V12.07,2013-02-26 01:57:00,
2013-02-25 21:27:00,28.4,24.8,26.71,SW,225,0.0,0.0,86,0.00,,,-99.99,VWS V12.07,2013-02-26 02:27:00,
2013-02-25 21:57:00,28.0,24.1,26.72,SSE,168,0.0,0.0,85,0.00,,,-99.99,VWS V12.07,2013-02-26 02:57:00,
2013-02-25 22:27:00,27.7,22.9,26.71,SSE,167,0.0,0.0,82,0.00,,,-99.99,VWS V12.07,2013-02-26 03:27:00,
2013-02-25 22:57:00,27.4,22.6,26.71,NW,315,0.0,0.0,82,0.00,,,-99.99,VWS V12.07,2013-02-26 03:57:00,
2013-02-25 23:27:00,27.1,22.1,26.72,ESE,107,0.0,0.0,81,0.00,,,-99.99,VWS V12.07,2013-02-26 04:27:00,
2013-02-25 23:57:00,26.8,22.0,26.71,NE,55,0.0,0.0,82,0.00,,,-99.99,VWS V12.07,2013-02-26 04:57:00,